Regional Weather Roundup
Issued by NWS

Home | Current Version | Previous Version | Graphics & Text | Print | Product List | Glossary On
Versions: 1 2 3 4 5 6 7 8 9 10 11 12 13 14 15 16 17 18 19 20 21 22 23 24 25 26 27 28 29 30 31 32 33 34 35 36 37 38 39 40 41 42 43 44 45 46 47 48 49 50
000
ASUS43 KOAX 251902
RWRNE

WEATHER ROUNDUP FOR NEBRASKA
NATIONAL WEATHER SERVICE OMAHA NE
200 PM CDT MON MAY 25 2015

NOTES: SATELLITE DATA IS BEING USED TO AUGMENT CLOUD COVER ABOVE
       12000 FEET.
       "FAIR" INDICATES FEW OR NO CLOUDS BELOW 12,000 FEET WITH NO
       SIGNIFICANT WEATHER AND/OR OBSTRUCTIONS TO VISIBILITY.

  * THESE STATIONS DO NOT REPORT WEATHER SUCH AS RAIN...SNOW OR FOG.

NEZ001>004-019>022-054>056-252000-
NEBRASKA PANHANDLE

CITY           SKY/WX    TMP DP  RH WIND       PRES   REMARKS
SCOTTSBLUFF    LGT RAIN  53  52  96 W7G17     29.88R FOG
ALLIANCE       CLOUDY    54  52  93 N15       29.84R
CHADRON        CLOUDY    58  51  78 SE7       29.84S
SIDNEY         LGT RAIN  54  49  83 NW16      29.88R
$$

NEZ057>060-069>072-079>082-252000-
SOUTHWEST NEBRASKA

CITY           SKY/WX    TMP DP  RH WIND       PRES   REMARKS
NORTH PLATTE   PTSUNNY   66  53  63 S5        29.81R
IMPERIAL       MOSUNNY   65  49  56 W14       29.84R
LEXINGTON      MOSUNNY   71  57  61 S12G18    29.80S
MCCOOK         MOSUNNY   70  51  51 W7        29.82S
$$

NEZ005>010-023>029-035>040-094-252000-
NORTH CENTRAL NEBRASKA

CITY           SKY/WX    TMP DP  RH WIND       PRES   REMARKS
VALENTINE      RAIN      54  53  97 SW6       29.80S FOG
AINSWORTH      CLOUDY    60  56  88 NE15      29.77S
BROKEN BOW     CLOUDY    68  52  56 S12       29.79R
ORD            CLOUDY    69  53  56 S8        29.77R
$$

NEZ041-046>049-061>064-073>077-083>087-252000-
SOUTH CENTRAL NEBRASKA

CITY           SKY/WX    TMP DP  RH WIND       PRES   REMARKS
GRAND ISLAND   PTSUNNY   71  56  58 S18G25    29.81R
HASTINGS       PTSUNNY   70  58  65 S13       29.81S
KEARNEY *      PTSUNNY   72  54  53 S15       29.81S
$$

NEZ011>018-030>034-042>045-252000-
NORTHEAST NEBRASKA

CITY           SKY/WX    TMP DP  RH WIND       PRES   REMARKS
NORFOLK        MOSUNNY   76  55  48 S16       29.77R
BLAIR          PTSUNNY   77  54  44 SW15G25   29.80F
COLUMBUS *     PTSUNNY   75  54  46 S17       29.82S
FREMONT        PTSUNNY   77  53  43 S8        29.80F
TEKAMAH        MOSUNNY   79  57  46 S18G25    29.78R
$$

NEZ050>053-065>068-078-088>093-252000-
SOUTHEAST NEBRASKA

CITY           SKY/WX    TMP DP  RH WIND       PRES   REMARKS
LINCOLN        MOSUNNY   77  60  55 S15G21    29.80F
OMAHA EPPLEY   MOSUNNY   77  57  50 SW14      29.80S
FALLS CITY     PTSUNNY   78  63  59 S18G28    29.83S
PLATTSMOUTH    MOSUNNY   76  56  49 SW15      29.81F
$$

NEZ044-045-051>053-067-252000-
OMAHA AREA

CITY           SKY/WX    TMP DP  RH WIND       PRES   REMARKS
OMAHA EPPLEY   MOSUNNY   77  57  50 SW14      29.80S
BLAIR          PTSUNNY   77  54  44 SW15G25   29.80F
FREMONT        PTSUNNY   77  53  43 S8        29.80F
OFFUTT AFB     MOSUNNY   77  58  51 S10       29.79F
PLATTSMOUTH    MOSUNNY   76  56  49 SW15      29.81F
$$


USA.gov is the U.S. government's official web portal to all federal, state and local government web resources and services.